Location: Béaulencourt
(50.0796°N, 2.8795°E)
Time: 23:43:33
(UTC+00:00)

BREEZE-M DEB (TANK) - Pass Details

Date: 20 January 2026
Orbit: 327 x 14637 km, 49.5° (Epoch: 6 February)

Event Time Altitude Azimuth Distance (km) Brightness Sun altitude
Exits shadow 05:51:36 37° 247° (WSW) 679 3.4 -16.5°
Maximum altitude 05:52:23 51° 195° (SSW) 599 3.4 -16.4°
Drops below altitude 10° 05:57:18 10° 119° (ESE) 2,705 8.1 -15.6°
Sets 06:01:51 0° 116° (ESE) 4,875 9.8 -14.9°
